EW8735 Weather Reports


Display with metric or nautical units.
time (UTC)temp
F
wind
direction
speed
MPH
gust
MPH
rain 1hr
in
rain 24hr
in
rain mn
in
humidity
%
barometer
mb
20260901133032 56 19 0.0 0.0 0.00 0.00 0.00 51 1003.3
20260901131543 56 19 0.0 0.0 0.00 0.00 0.00 51 1003.3
20260901130031 56 19 0.0 0.0 0.00 0.00 0.00 51 1003.2
20260901124530 56 19 0.0 0.0 0.00 0.00 0.00 51 1003.2
20260901123033 57 19 0.0 0.0 0.00 0.00 0.00 54 1003.2
20260901121526 57 19 0.0 0.0 0.00 0.00 0.00 51 1003.1
20260901120023 58 19 0.0 0.0 0.00 0.00 0.00 49 1003.1
20260901114536 58 19 0.0 0.0 0.00 0.00 0.00 49 1003.0
20260901113023 58 19 0.0 0.0 0.00 0.00 0.00 49 1003.1
20260901111519 58 19 0.0 0.0 0.00 0.00 0.00 52 1003.0
20260901110017 59 19 0.0 0.0 0.00 0.00 0.00 51 1003.1
20260901104515 59 19 0.0 0.0 0.00 0.00 0.00 48 1003.3
20260901103017 60 19 0.0 0.0 0.00 0.00 0.00 49 1003.5
20260901101510 61 19 0.0 0.0 0.00 0.00 0.00 47 1003.6
20260901100010 61 19 0.0 0.0 0.00 0.00 0.00 48 1003.6
20260901094517 60 19 0.0 0.0 0.00 0.00 0.00 47 1003.6
20260901093007 60 19 0.0 0.0 0.00 0.00 0.00 47 1003.8
20260901091506 60 19 0.0 0.0 0.00 0.00 0.00 47 1003.9
20260901090007 60 19 0.0 0.0 0.00 0.00 0.00 45 1003.9
20260901084503 60 19 0.0 0.0 0.00 0.00 0.00 45 1003.9
20260901083002 60 19 0.0 0.0 0.00 0.00 0.00 44 1004.0
20260901081600 61 19 0.0 0.0 0.00 0.00 0.00 43 1004.0
20260901080059 61 19 0.0 0.0 0.00 0.00 0.00 43 1004.0
20260901074601 61 19 0.0 0.0 0.00 0.00 0.00 43 1003.8
20260901073054 62 19 0.0 0.0 0.00 0.00 0.00 41 1003.8
20260901071553 62 19 0.0 0.0 0.00 0.00 0.00 40 1003.8
20260901070049 63 19 0.0 0.0 0.00 0.00 0.00 38 1003.7
20260901064549 63 19 0.0 0.0 0.00 0.00 0.00 38 1003.7
20260901063106 63 18 0.0 0.0 0.00 0.00 0.00 38 1003.7
20260901061549 63 19 0.0 0.0 0.00 0.00 0.00 38 1003.6
20260901060048 63 19 0.0 0.0 0.00 0.00 0.00 38 1003.7
20260901054547 63 17 0.0 0.0 0.00 0.00 0.00 38 1003.8
20260901053054 63 16 0.0 0.0 0.00 0.00 0.00 37 1003.9
20260901051603 63 16 0.0 0.0 0.00 0.00 0.00 37 1003.9
20260901050048 63 16 0.0 0.0 0.00 0.00 0.00 36 1004.0
20260901044546 63 15 0.0 0.0 0.00 0.00 0.00 36 1003.9
20260901043053 63 15 0.0 0.0 0.00 0.00 0.00 35 1003.9
20260901041544 63 14 0.0 0.0 0.00 0.00 0.00 34 1003.9
20260901040045 65 15 0.0 0.0 0.00 0.00 0.00 32 1003.9
20260901034544 67 15 0.0 0.0 0.00 0.00 0.00 31 1003.8
20260901033104 69 14 0.0 0.0 0.00 0.00 0.00 29 1003.7
20260901031544 73 14 0.0 0.0 0.00 0.00 0.00 27 1003.6
20260901030043 74 15 0.0 0.0 0.00 0.00 0.00 27 1003.4
20260901024543 76 15 0.0 0.0 0.00 0.00 0.00 27 1003.5
20260901023049 78 15 0.0 0.0 0.00 0.00 0.00 25 1003.4
20260901021548 80 15 0.0 0.0 0.00 0.00 0.00 24 1003.5
20260901020042 81 15 0.0 0.0 0.00 0.00 0.00 23 1003.7
20260901014540 82 15 0.0 0.0 0.00 0.00 0.00 22 1003.8
20260901013137 83 16 0.0 0.0 0.00 0.00 0.00 21 1003.9
20260901011537 83 16 0.0 0.0 0.00 0.00 0.00 21 1004.0
20260901010038 84 14 0.0 0.0 0.00 0.00 0.00 20 1004.0
20260901004535 84 11 0.0 0.0 0.00 0.00 0.00 19 1004.1
20260901003037 84 14 0.0 0.0 0.00 0.00 0.00 20 1004.2
20260901001541 85 12 0.0 0.0 0.00 0.00 0.00 20 1004.4
20260901000029 85 11 0.0 0.0 0.00 0.00 0.00 21 1004.7
20260831234528 85 10 0.0 0.0 0.00 0.00 0.00 21 1004.9
20260831233027 85 12 0.0 0.0 0.00 0.00 0.00 21 1005.0
20260831231524 85 14 0.0 0.0 0.00 0.00 0.00 21 1005.3
20260831230023 85 4 0.0 0.0 0.00 0.00 0.00 21 1005.4
20260831224520 85 4 0.0 0.0 0.00 0.00 0.00 21 1005.7
20260831223017 84 12 0.0 0.0 0.00 0.00 0.00 22 1005.8
20260831221523 83 13 0.0 0.0 0.00 0.00 0.00 22 1006.1
20260831220011 83 14 0.0 0.0 0.00 0.00 0.00 23 1006.4
20260831214508 83 354 0.0 0.0 0.00 0.00 0.00 25 1006.6
20260831213010 83 354 0.0 0.0 0.00 0.00 0.00 24 1006.8
20260831211504 82 354 0.0 0.0 0.00 0.00 0.00 24 1007.1
20260831210000 81 354 0.0 0.0 0.00 0.00 0.00 25 1007.2
20260831204559 81 354 0.0 0.0 0.00 0.00 0.00 25 1007.5
20260831203104 81 343 0.0 0.0 0.00 0.00 0.00 24 1007.7
20260831201555 81 340 0.0 0.0 0.00 0.00 0.00 24 1008.0
20260831200058 80 340 0.0 0.0 0.00 0.00 0.00 27 1008.2
20260831194612 80 340 0.0 0.0 0.00 0.00 0.00 26 1008.4
20260831193053 81 321 0.0 0.0 0.00 0.00 0.00 26 1008.5
20260831191549 80 321 0.0 0.0 0.00 0.00 0.00 28 1008.9
20260831190107 79 321 0.0 0.0 0.00 0.00 0.00 26 1009.3
20260831184541 77 321 0.0 0.0 0.00 0.00 0.00 27 1009.6
20260831183036 76 314 0.0 0.0 0.00 0.00 0.00 27 1009.8
20260831181542 74 314 0.0 0.0 0.00 0.00 0.00 29 1010.0
20260831180029 74 314 0.0 0.0 0.00 0.00 0.00 30 1010.2
20260831174526 73 314 0.0 0.0 0.00 0.00 0.00 31 1010.5
20260831173023 71 314 0.0 0.0 0.00 0.00 0.00 33 1010.6
20260831171517 69 314 0.0 0.0 0.00 0.00 0.00 36 1010.8
20260831170014 67 323 0.0 0.0 0.00 0.00 0.00 38 1010.8
20260831164518 67 323 0.0 0.0 0.00 0.00 0.00 40 1010.9
20260831163011 65 328 0.0 0.0 0.00 0.00 0.00 42 1011.0
20260831161506 65 62 0.0 0.0 0.00 0.00 0.00 41 1011.2
20260831160001 63 62 0.0 0.0 0.00 0.00 0.00 43 1011.4
20260831154606 62 62 0.0 0.0 0.00 0.00 0.00 45 1011.4
20260831153108 59 280 0.0 0.0 0.00 0.00 0.00 50 1011.5
20260831151552 58 279 0.0 0.0 0.00 0.00 0.00 49 1011.6
20260831150048 57 279 0.0 0.0 0.00 0.00 0.00 53 1011.7
20260831144545 55 280 0.0 0.0 0.00 0.00 0.00 55 1011.6
20260831143044 52 279 0.0 0.0 0.00 0.00 0.00 60 1011.6
20260831141542 49 279 0.0 0.0 0.00 0.00 0.00 62 1011.3
20260831140039 49 279 0.0 0.0 0.00 0.00 0.00 63 1011.4
20260831134544 48 280 0.0 0.0 0.00 0.00 0.00 63 1011.3